Location: Newark
(13.8117°N, 3.6025°W)
Time: 00:35:32
(UTC+00:00)

A-11 Canister half - All Passes

Search period start: 21 August 2019 00:00
Search period end: 31 August 2019 00:00
Orbit: 1526 x 1683 km, 47.3° (Epoch: 19 August)

Date Brightness Start Highest point End Pass type
(mag) Time Alt. Az. Time Alt. Az. Time Alt. Az.
21 Aug - 08:48:06 10° S 08:56:24 33° SE 09:04:54 10° ENE daylight
21 Aug - 10:51:39 10° WSW 11:01:08 57° NW 11:10:57 10° NNE daylight
21 Aug - 13:03:11 10° WNW 13:08:01 14° NNW 13:12:54 10° N daylight
21 Aug - 17:24:48 10° N 17:29:07 13° NNE 17:33:23 10° NE daylight
21 Aug - 19:26:27 10° NNW 19:36:12 52° NE 19:45:37 10° ESE visible
21 Aug - 21:32:12 10° WNW 21:41:01 37° SW 21:49:37 10° S visible
22 Aug - 08:26:43 10° S 08:34:47 31° SE 08:43:01 10° ENE daylight
22 Aug - 10:29:57 10° SW 10:39:28 60° NW 10:49:20 10° NNE daylight
22 Aug - 12:40:59 10° WNW 12:46:13 15° NNW 12:51:31 10° N daylight
22 Aug - 17:03:30 10° N 17:07:18 12° NNE 17:11:03 10° NE daylight
22 Aug - 19:04:51 10° NNW 19:14:31 49° NE 19:23:53 10° ESE visible
22 Aug - 21:10:23 10° WNW 21:19:24 40° SW 21:28:11 10° SSE visible
23 Aug - 08:05:22 10° S 08:13:11 28° SE 08:21:08 10° ENE daylight
23 Aug - 10:08:16 10° SW 10:17:49 64° NW 10:27:43 10° NE daylight
23 Aug - 12:18:50 10° WNW 12:24:25 16° NNW 12:30:05 10° N daylight
23 Aug - 16:42:17 10° N 16:45:28 12° NNE 16:48:37 10° NE daylight
23 Aug - 18:43:15 10° NNW 18:52:50 46° NE 19:02:08 10° ESE visible
23 Aug - 20:48:34 10° WNW 20:57:47 43° SW 21:06:45 10° SSE visible
24 Aug - 07:44:03 10° S 07:51:33 26° SE 07:59:13 10° ENE daylight
24 Aug - 09:46:35 10° SW 09:56:10 68° NW 10:06:05 10° NE daylight
24 Aug - 11:56:43 10° WNW 12:02:37 17° NNW 12:08:38 10° N daylight
24 Aug - 16:21:12 10° N 16:23:37 11° NNE 16:26:01 10° NE daylight
24 Aug - 18:21:40 10° NNW 18:31:08 44° NE 18:40:21 10° ESE daylight
24 Aug - 20:26:47 10° WNW 20:36:09 46° SW 20:45:17 10° SSE visible
25 Aug - 07:22:46 10° S 07:29:57 24° SE 07:37:15 10° ENE daylight
25 Aug - 09:24:56 10° SW 09:34:31 72° NW 09:44:27 10° NE daylight
25 Aug - 11:34:38 10° WNW 11:40:51 18° NNW 11:47:11 10° N daylight
25 Aug - 16:00:31 10° NNE 16:01:46 10° NNE 16:03:01 10° NNE daylight
25 Aug - 18:00:06 10° NNW 18:09:27 41° NE 18:18:34 10° ESE daylight
25 Aug - 20:05:01 10° WNW 20:14:32 49° SW 20:23:48 10° SSE visible
26 Aug - 07:01:30 10° S 07:08:21 22° SE 07:15:17 10° E daylight
26 Aug - 09:03:17 10° SW 09:12:52 77° NW 09:22:49 10° NE daylight
26 Aug - 11:12:35 10° WNW 11:19:05 19° NNW 11:25:42 10° N daylight
26 Aug - 17:38:30 10° NNW 17:47:45 39° NE 17:56:46 10° ESE daylight
26 Aug - 19:43:15 10° NW 19:52:55 53° SW 20:02:19 10° SSE visible
27 Aug - 06:40:17 10° S 06:46:43 20° SE 06:53:15 10° E daylight
27 Aug - 08:41:39 10° SW 08:51:13 81° NW 09:01:10 10° NE daylight
27 Aug - 10:50:34 10° W 10:57:18 20° NW 11:04:13 10° N daylight
27 Aug - 17:16:57 10° NNW 17:26:02 36° NE 17:34:56 10° ESE daylight
27 Aug - 19:21:31 10° NW 19:31:17 57° SW 19:40:49 10° SSE visible
28 Aug - 06:19:07 10° SSE 06:25:07 18° SE 06:31:10 10° E daylight
28 Aug - 08:20:03 10° SW 08:29:36 86° NW 08:39:30 10° NE daylight
28 Aug - 10:28:35 10° W 10:35:33 22° NW 10:42:43 10° NNE daylight
28 Aug - 16:55:22 10° NNW 17:04:20 34° NE 17:13:05 10° ESE daylight
28 Aug - 18:59:46 10° NW 19:09:39 61° SW 19:19:17 10° SSE visible
29 Aug - 05:58:01 10° SSE 06:03:30 17° SE 06:09:02 10° E daylight
29 Aug - 07:58:26 10° SW 08:07:58 89° SE 08:17:51 10° NE daylight
29 Aug - 10:06:37 10° W 10:13:48 23° NW 10:21:13 10° NNE daylight
29 Aug - 16:33:50 10° NNW 16:42:37 32° NE 16:51:13 10° E daylight
29 Aug - 18:38:02 10° NW 18:48:01 65° SW 18:57:44 10° SSE visible
30 Aug - 05:37:00 10° SSE 05:41:53 15° SE 05:46:48 10° E visible
30 Aug - 07:36:51 10° SW 07:46:20 84° SE 07:56:10 10° NE daylight
30 Aug - 09:44:40 10° W 09:52:04 24° NW 09:59:41 10° NNE daylight
30 Aug - 16:12:17 10° NNW 16:20:53 30° NE 16:29:21 10° E daylight
30 Aug - 18:16:20 10° NW 18:26:23 69° SW 18:36:12 10° SSE daylight
30 Aug - 20:28:15 10° WSW 20:30:58 11° SW 20:33:41 10° SW visible
